Regional Weather Roundup
Issued by NWS Little Rock, AR

Home | Current Version | Previous Version | Text Only | Print | Product List | Glossary On
Versions: 1 2 3 4 5 6 7 8 9 10 11 12 13 14 15 16 17 18 19 20 21 22 23 24 25 26 27 28 29 30 31 32 33 34 35 36 37 38 39 40 41 42 43 44 45 46 47 48 49 50
000
ASUS44 KLZK 160405
RWRLZK

WEATHER ROUNDUP FOR ARKANSAS
NATIONAL WEATHER SERVICE LITTLE ROCK AR
1100 PM CDT MON SEP 15 2014

NOTE: "FAIR" INDICATES FEW OR NO CLOUDS BELOW 12,000 FEET WITH NO
SIGNIFICANT WEATHER AND/OR OBSTRUCTIONS TO VISIBILITY.

ARZ001-003-010-029-160500-
NORTHWEST ARKANSAS

CITY           SKY/WX    TMP DP  RH WIND       PRES   REMARKS
FAYETTEVILLE   PTCLDY    67  66  97 S3        30.16S
FORT SMITH     PTCLDY    70  68  93 CALM      30.13F
HARRISON       MOCLDY    69  67  93 N6        30.16R
BENTONVILLE    CLOUDY    72  66  83 N3        30.18R
ROGERS         CLOUDY    71  67  87 CALM      30.18R
SILOAM SPGS    MOCLDY    70  63  78 W5        30.18R
HIGHFILL       MOCLDY    70  68  93 CALM      30.17R
$$

ARZ004-005-016-160500-
NORTH CENTRAL ARKANSAS

CITY           SKY/WX    TMP DP  RH WIND       PRES   REMARKS
BATESVILLE     PTCLDY    72  66  83 SW8       30.12S
FLIPPIN        MOCLDY    70  64  83 CALM      30.13S
MTN HOME       MOCLDY    70  68  93 CALM      30.13R
$$

ARZ040-041-160500-
WEST CENTRAL ARKANSAS

CITY           SKY/WX    TMP DP  RH WIND       PRES   REMARKS
MENA             N/A     72  70  94 CALM        N/A
MOUNT IDA      CLOUDY    70  68  93 CALM      30.15R
$$

ARZ009-017-025-026-028-160500-
NORTHEAST ARKANSAS

CITY           SKY/WX    TMP DP  RH WIND       PRES   REMARKS
CORNING          N/A     66  66 100 NW5       30.11R
JONESBORO      CLOUDY    71  65  81 SW7       30.11R
NEWPORT        CLEAR     68  66  93 S6        30.12F
WALNUT RIDGE   PTCLDY    63  61  94 SW6       30.10S
BLYTHEVILLE    CLEAR     67  65  93 SW6       30.11S
$$

ARZ022-023-033-042-044-160500-
CENTRAL ARKANSAS

CITY           SKY/WX    TMP DP  RH WIND       PRES   REMARKS
LITTLE ROCK    CLOUDY    72  66  81 CALM      30.14R
N LITTLE ROCK  MOCLDY    70  68  93 SW5       30.14R
JACKSONVILLE   MOCLDY    68  66  94 CALM      30.14R
SEARCY         PTCLDY    67  66  96 CALM      30.14S
HOT SPRINGS    CLOUDY    71  67  87 CALM      30.16R
RUSSELLVILLE   PTCLDY    68  66  93 CALM      30.14R
CLINTON        MOCLDY    64  64 100 CALM      30.15S FOG
$$

ARZ036-160500-
EAST ARKANSAS

CITY           SKY/WX    TMP DP  RH WIND       PRES   REMARKS
WEST MEMPHIS   CLOUDY    72  67  84 SW3       30.11F
$$

ARZ050-053-066-070-073-160500-
SOUTHWEST ARKANSAS

CITY           SKY/WX    TMP DP  RH WIND       PRES   REMARKS
ARKADELPHIA    FAIR      70  70 100 SW3       30.15S FOG
CAMDEN         CLOUDY    68  66  94 CALM      30.15R FOG
TEXARKANA      CLOUDY    72  70  93 NE5       30.14R
EL DORADO      PTCLDY    70  68  93 N3        30.14S
DE QUEEN       CLOUDY    71  69  93 CALM      30.13R FOG
$$

ARZ056-057-069-160500-
SOUTHEAST ARKANSAS

CITY           SKY/WX    TMP DP  RH WIND       PRES   REMARKS
PINE BLUFF     CLOUDY    70  68  93 CALM      30.15R
STUTTGART      CLOUDY    70  64  83 S3        30.14S
MONTICELLO     CLOUDY    72  68  87 CALM      30.14R

$$




USA.gov is the U.S. government's official web portal to all federal, state and local government web resources and services.